www.pogodaiklimat.ru

Погода и климат >> Архив погоды >> Мексика >> Монклова


ПОГОДА в Монклове

  • Прогноз погоды в Монклове
  • Монитор погоды в Монклове

АРХИВ ПОГОДЫ в Монклове

Время (UTC), дата Ветер
(напр.,м/с)
 
Видим.   Явления Облачность Т
(С)
Тd
(С)
f
(%)
Тe
(С)
Тes
(С)
Комфортность P
(гПа)
Po
(гПа)
Тmin
(С)
Tmax
(С)
R
(мм)
R24
(мм)
S
(см)
06 14.01 В 2 4000 м 8/0
[As op]
+9.4 +4.2 70 +8 +8 1029.8 957.4 +15.4
09 14.01 СВ 2 4000 м 8/0
[As op]
+9.6 +4.4 70 +8 +8 1029.6 956.8
12 14.01 С 2 4000 м 8/0 2000 м
[As op]
+9.0 +5.9 81 +7 +7 1029.9 956.8 +8.0 +15.4
15 14.01 СВ 1 12 км 10/10 300 м
[Frnb]
+8.2 +5.9 85 +7 +7 1032.5 959.2
18 14.01 С 1 12 км 10/10 300 м
[Frnb]
+9.4 +6.3 81 +9 +9 1033.4 960.0 +7.6 +9.6
21 14.01 СВ 1 12 км 10/10 300 м
[Frnb]
+10.6 +6.4 75 +10 +10 1030.9 957.7
00 15.01 СВ 2 10 км 10/10 200 м
[Frnb]
+10.6 +7.3 80 +9 +9 1029.3 956.2 +7.6 +11.6
03 15.01 СВ 2 10 км 10/10 200 м
[Frnb]
+10.6 +7.3 80 +9 +9 1029.3 956.2 +7.6 +11.6
06 15.01 СВ 1 4000 м 10/10 300 м
[Frnb]
+9.0 +7.1 88 +8 +8 1038.7 957.7 +11.6
09 15.01 С 1 4000 м 10/10 300 м
[Frnb]
+8.0 +6.7 91 +7 +7 1030.3 957.1
12 15.01 В 1 4000 м слаб. морось 10/10 300 м
[]
+8.0 +7.2 95 +7 +7 1029.0 955.8 0.0
15 15.01 СВ 1 10 км слаб. дождь 10/10 300 м
[Frnb]
+8.4 +7.8 96 +7 +7 1030.0 956.6 5
18 15.01 СВ 1 10 км слаб. морось 10/10 300 м
[]
+9.6 +8.5 93 +9 +9 1030.9 957.5 6
21 15.01 В 1 10 км 10/10 300 м
[Frnb]
+10.7 +9.1 90 +10 +10 1027.3 954.2 0.2
00 16.01 С 1 10 км 10/10 300 м
[]
+10.2 +9.1 93 +10 +10 1027.0 954.1 0.2
03 16.01 С 1 4000 м 10/10 300 м
[Frnb]
+9.8 +8.9 94 +9 +9 1027.2 954.4
09 16.01 штиль 0 4000 м 10/10 300 м
[Frnb]
+9.8 +8.7 93 +9 +9 1027.1 954.4
12 16.01 В 1 4000 м 10/10 300 м
[Frnb]
+9.8 +8.9 94 +9 +9 1026.6 953.8 +9.0 +11.2
15 16.01 СЗ 2 10 км 10/10 300 м
[Frnb]
+10.8 +9.7 93 +9 +9 1026.9 954.1
18 16.01 СЗ 2 12 км 6/6 300 м
[Frnb]
+14.0 +11.3 84 +13 +17 1027.3 954.6 +9.2 +14.4
21 16.01 СЗ 2 12 км ясно +19.2 +13.5 70 +21 +28 комфорт 1023.1 951.3
00 17.01 СВ 2 12 км ясно +18.4 +13.6 74 +19 +19 1022.1 950.9 +9.2 +20.0
03 17.01 В 1 4000 м ясно +13.0 +12.0 94 +13 +13 1023.6 952.5
06 17.01 В 1 4000 м ясно +11.4 +10.7 95 +11 +11 1024.3 953.1 +20.0
09 17.01 Ю 1 4000 м ясно +10.4 +9.7 95 +10 +10 1023.6 952.1
12 17.01 В 1 4000 м ясно +9.0 +8.6 97 +8 +8 1024.4 952.2 +8.4 +20.0
15 17.01 Ю 1 12 км 6/0
[Cs]
+10.4 +9.0 91 +10 +12 1026.1 953.5
18 17.01 С 1 12 км 6/0
[Cs]
+16.8 +12.6 76 +18 +28 1027.8 955.3 +8.0 +17.0
21 17.01 В 1 12 км 8/0
[Cs]
+22.0 +13.2 57 +25 +31 комфорт 1023.1 951.6
00 18.01 СВ 1 12 км 8/0 2000 м
[As trans]
+20.0 +13.0 64 +23 +23 комфорт 1021.9 951.2 +8.0 +22.2
03 18.01 В 1 4000 м ясно +15.8 +12.2 79 +16 +16 1021.4 951.1
06 18.01 В 1 4000 м ясно +14.8 +12.2 84 +15 +15 1022.0 951.6 +22.2
09 18.01 С 1 4000 м ясно +14.5 +11.1 80 +15 +15 1021.8 951.1
12 18.01 С 1 4000 м 8/0
[Ac und]
+14.2 +11.5 84 +15 +15 1021.0 949.9 +13.7
15 18.01 Ю 1 12 км 10/0 2000 м
[Ac und]
+15.8 +11.8 77 +17 +17 1018.8 947.8
18 18.01 Ю 1 12 км 6/0 2000 м
[Ac As]
+21.5 +13.8 62 +24 +31 комфорт 1017.7 947.0 +13.7 +22.0
21 18.01 В 2 12 км 9/0 2000 м
[Ac und]
+25.1 +15.3 55 +28 +30 жарко 1012.8 942.9
00 19.01 ЮЗ 2 12 км 10/0 2000 м
[Ac As]
+25.5 +11.7 42 +27 +27 жарко 1011.0 942.0 +13.7 +27.1
03 19.01 Ю 3 4000 м 4/0
[Ci]
+21.6 +10.8 50 +23 +23 комфорт 1010.4 941.9
06 19.01 Ю 2 4000 м 4/0
[Ci]
+20.8 +8.9 46 +23 +23 комфорт 1011.2 942.7 +13.7 +27.1
09 19.01 В 5 4000 м ясно +17.8 +8.8 56 +17 +17 1015.2 946.1
12 19.01 В 3 4000 м ясно +15.0 +5.7 54 +14 +14 1018.4 948.5 +14.4 +27.1

 

Местоположение метеостанции Монклова (Мексика): широта 26.88 долгота -101.40 высота над уровнем моря 615 м.

В архиве по умолчанию представлена погода в Монклове за последнюю неделю. Архивные данные за месяц целиком и за предыдущие месяцы, начиная с января 2011 года, Вы можете получить, выбрав интересующий диапазон дат из раскрывающегося списка и нажав кнопку "Ввод!".


*Определитесь, кто Вы:
робот инопланетянин человек

Внимание! Время в таблицах - всемирное. Для получения местного времени необходимо прибавить поправку, которая равна -6 ч.

Смотрите также архив погоды в соседних городах и на ближайших метеорологических станциях:

Погода в Монтеррее (Мексика) (168 км)
Погода в Солтильо (Мексика) (173 км)
Погода в Пьедрас-Неграс (Мексика) (221 км)
Погода в Торреоне (Мексика) (250 км)
Погода в Паррале (Мексика) (417 км)
Погода в Сьюдад-Виктории (Мексика) (418 км)
Погода в Сомбререте (Мексика) (424 км)
Погода в Дуранго (Мексика) (450 км)
Погода в Тепеуанесе (Мексика) (464 км)
Погода в Сакатекасе (Мексика) (469 км)

Пояснения к столбцам:

Ветер - указаны скорость ветра в м/с - средняя за 10 мин, порывы в срок и между сроками (в фигурных скобках) и направление, откуда дует ветер: С - северный, СВ - северо-восточный, В - восточный, ЮВ - юго-восточный, Ю - южный, ЮЗ - юго-западный, З - западный, СЗ - северо-западный.
Видимость - горизонтальная дальность видимости в метрах или километрах. При видимости от 1 до 10 км при отсутствии осадков обычно наблюдается дымка, при ухудшении видимости до 1 км и менее - туман. В сухую погоду видимость может ухудшаться дымом, пылью или мглою.
Явления - указаны атмосферные явления, наблюдавшиеся в срок или в последний час перед сроком; фигурными скобками обозначены явления, наблюдавшиеся между сроками (за 1-3 часа до срока); квадратными скобками обозначены град или гололедные отложения с указанием их диаметра в мм.
Облачность - указаны через наклонную черту общая и нижняя облачность в баллах и высота нижней границы облаков в метрах; квадратными скобками обозначены формы облаков: Ci - перистые, Cs - перисто-слоистые, Cc - перисто-кучевые, Ac - высококучевые, As - высокослоистые, Sc - слоисто-кучевые, Ns - слоисто-дождевые, Cu - кучевые, Cb - кучево-дождевые. Подробнее классификацию облаков см. в Атласе облаков (PDF).
T - Температура воздуха - температура, измеренная на высоте 2 м над землей.
Td - Температура точки росы - температура, при понижении до которой содержащийся в воздухе водяной пар достигнет насыщения.
f - Относительная влажность воздуха - влажноcть воздуха, измеренная на высоте 2 м над землей.
Te - Эффективная температура - температура, которую ощущает одетый по сезону человек в тени. Характеристика душности погоды. При расчете учитывается влияние влажности воздуха и скорости ветра на теплоощущения человека.
Tes - Эффективная температура на солнце - температура, которую ощущает человек, с поправкой на солнечный нагрев. Характеристика знойности погоды. Зависит от высоты солнца над горизонтом, облачности и скорости ветра. Ночью, в пасмурную погоду, а также при ветре 12 м/с и более поправка равна нулю.
P - Атмосферное давление - приведенное к уровню моря атмосферное давление.
Po - Атмосферное давление - измеренное на уровне метеостанции атмосферное давление.
Tmin - Минимальная температура - минимум температуры воздуха на высоте 2 м над землей.
Tmax - Максимальная температура - максимум температуры воздуха на высоте 2 м над землей.
R - Количество осадков - Количество выпавших осадков за период времени, мм. При наведении курсора мыши на число - период времени, за который выпало указанное количество осадков.
R24 - Количество осадков - Количество выпавших осадков за 24 часа, мм.
S - Снежный покров - Высота снежного покрова, см. При наведении курсора мыши на число - состояние снежного покрова и степень покрытия местности в баллах.